Theta_e
322 329 328 324 330 332 326 321 315 318 317 310 312 313 312 312 311 310 309 309 307 308 311 309 309 310 308 308 308 305 301 299 299 299 299 298 296 296 295 295 294 295 294 294 293 292 292 291 292 292 292 291 291 291 291 291 290 290 290 290 290 290 289 289 288 288 287 287 287 287 286 286 286 286 285 285 285 285 284 284 284 283 283 283 282 282
324 326 329 333 330 325 322 316 311 312 312 310 312 313 313 312 311 309 308 308 307 308 312 311 309 310 309 308 308 306 303 301 300 299 299 298 297 296 296 295 295 295 294 294 293 292 291 291 291 292 292 291 291 291 291 291 290 290 290 290 290 289 289 289 288 288 287 287 286 286 286 285 285 285 285 285 285 284 284 283 283 283 282 282 282 281
329 327 334 335 324 315 313 311 309 310 310 311 311 312 314 313 313 312 310 310 309 308 312 312 309 309 308 308 307 307 305 303 301 300 300 299 297 297 296 295 295 295 295 295 293 291 291 291 291 291 292 291 291 291 291 290 290 290 290 290 290 289 289 289 288 288 287 287 286 286 285 285 285 285 284 284 284 283 283 283 282 282 282 281 281 281
324 331 332 323 315 311 312 312 311 310 310 312 311 312 315 313 314 316 314 313 311 309 311 310 308 307 307 307 307 307 305 304 303 301 301 300 299 297 296 296 295 295 295 295 293 291 290 290 290 291 292 292 291 291 291 290 290 290 290 290 290 289 289 289 288 287 287 286 286 286 285 285 284 284 284 283 283 283 282 282 282 281 281 281 281 280
319 322 316 313 313 312 314 314 312 311 313 318 315 313 315 314 314 314 313 311 312 314 312 307 308 310 309 308 308 307 305 303 303 302 301 301 300 298 297 296 295 295 294 294 293 291 289 289 290 291 292 291 291 291 290 290 290 289 290 290 289 289 289 288 288 287 287 286 286 286 285 285 284 284 284 283 283 283 282 282 282 281 281 281 280 280
320 314 308 313 314 311 313 315 317 314 315 322 321 314 314 315 313 313 313 312 313 317 311 307 313 317 312 310 309 308 307 305 302 301 301 300 299 298 297 296 295 295 294 293 293 291 289 289 291 292 292 291 291 291 290 290 289 289 289 289 289 289 289 288 287 287 286 286 285 285 284 284 283 283 283 283 283 282 282 281 281 281 281 280 280 280
315 308 309 317 317 315 313 316 321 317 313 320 319 315 315 314 311 311 312 312 316 317 309 307 313 314 311 311 311 310 309 307 304 302 301 300 299 297 296 296 295 294 294 293 292 291 290 289 291 291 291 291 291 290 290 289 289 289 289 289 289 289 288 288 287 287 286 286 285 285 284 283 283 282 282 282 282 281 281 281 280 280 280 280 280 279
312 309 312 315 316 317 315 318 321 315 317 322 315 313 314 311 310 310 308 309 313 311 307 308 309 309 309 310 310 308 308 308 305 303 301 299 298 297 296 296 295 294 293 293 293 293 290 289 290 291 291 291 291 290 290 289 289 289 289 289 289 289 288 287 287 286 286 285 285 284 284 283 283 282 282 282 281 281 281 280 280 280 280 279 279 279
313 313 316 315 314 315 318 326 322 313 318 320 310 308 309 307 308 308 306 308 309 306 309 310 307 309 312 311 310 306 306 309 307 305 304 300 298 297 296 296 294 294 293 292 293 293 290 289 291 291 291 291 291 290 290 289 289 289 289 289 289 288 287 287 286 286 285 285 284 284 283 283 282 282 282 281 281 280 280 280 280 279 279 279 279 279
311 311 316 318 316 317 321 323 316 313 315 312 308 310 312 312 311 309 307 310 310 309 312 312 308 311 316 315 312 307 308 312 309 306 304 301 299 297 296 295 294 293 292 292 292 290 289 290 291 291 291 291 291 290 289 289 289 289 289 289 288 288 287 286 286 285 285 284 284 283 283 282 282 282 281 281 280 280 279 279 279 279 279 279 279 279
311 306 308 314 315 317 319 312 306 310 310 308 310 314 316 316 313 311 310 311 314 316 317 314 309 311 316 315 313 312 316 317 313 310 307 303 300 297 296 295 293 292 291 292 292 289 289 291 291 291 291 291 290 290 289 289 289 289 289 288 288 287 286 286 285 285 284 284 283 283 282 282 281 281 281 280 280 279 279 279 279 278 278 278 278 278
312 307 310 313 311 312 315 310 306 308 309 310 314 316 318 319 317 317 315 313 318 322 320 313 307 308 313 314 312 313 316 314 311 312 311 308 301 297 295 294 293 292 291 291 292 291 289 290 289 290 290 290 290 290 289 289 289 289 289 288 287 287 286 285 285 284 284 283 283 282 282 281 281 280 280 279 279 279 278 278 278 278 278 278 278 277
316 314 313 310 308 308 314 314 309 310 312 312 313 317 321 322 323 324 319 316 320 322 314 306 306 308 309 311 310 310 312 310 308 307 308 308 302 297 295 294 292 291 290 291 291 292 292 290 288 289 290 290 290 289 289 289 289 288 288 287 286 286 285 285 284 284 283 283 282 281 281 281 280 280 279 279 278 278 278 278 278 277 277 277 277 277
321 319 312 309 309 309 313 314 313 316 314 309 311 319 324 324 324 326 322 319 320 319 309 302 307 311 311 312 310 308 309 309 306 305 304 304 302 298 295 293 292 291 290 291 291 293 293 290 287 288 290 290 289 289 289 289 288 288 288 286 286 285 285 284 283 283 282 282 281 281 280 280 279 279 278 278 278 278 277 277 277 277 276 276 276 276
321 321 316 313 314 310 309 311 318 322 314 308 311 317 321 325 327 325 325 322 318 318 311 303 309 316 314 313 311 308 307 305 304 301 299 301 301 298 295 293 292 290 290 291 291 293 292 288 288 289 290 290 289 289 288 288 288 288 287 286 285 285 284 283 283 282 282 281 280 280 279 279 278 278 278 277 277 277 277 276 276 276 276 276 276 276
316 319 318 310 308 307 307 310 314 320 315 308 309 313 317 321 323 320 320 319 314 313 312 307 311 314 311 308 307 306 303 301 301 298 297 300 299 296 295 292 291 290 290 290 291 293 291 287 288 290 290 289 289 288 288 288 288 287 286 285 284 284 283 283 282 281 281 280 279 279 278 278 277 277 277 276 276 276 276 275 275 275 275 275 275 275
315 319 314 306 306 305 305 306 308 315 317 310 308 314 314 311 316 318 317 313 309 311 314 312 311 311 310 309 305 301 300 299 300 297 296 298 297 295 294 292 290 290 290 290 291 292 291 287 287 289 289 289 289 288 288 288 287 286 285 284 284 283 282 282 281 280 280 279 278 278 277 277 277 276 276 276 275 275 275 275 274 274 274 275 275 275
315 317 312 307 311 306 299 303 305 306 310 312 314 313 308 306 311 316 316 313 309 311 315 313 311 310 312 311 303 299 300 302 301 297 295 295 294 294 293 291 291 290 290 290 291 292 291 287 287 289 289 289 288 288 288 287 287 285 284 284 283 282 281 281 280 279 279 278 277 277 276 276 276 275 275 275 274 274 274 274 274 274 274 274 274 274
313 314 314 306 308 305 299 305 310 304 302 309 312 307 306 311 312 311 313 315 314 313 314 314 313 312 312 314 310 305 304 305 303 296 294 295 294 293 292 291 290 290 290 290 290 292 291 287 286 289 289 288 288 288 288 287 286 285 284 283 282 281 280 280 279 278 277 277 276 276 275 275 275 274 274 274 273 273 273 273 273 273 273 274 274 274
312 313 316 305 301 304 303 307 315 310 302 302 304 302 305 311 312 312 311 313 315 315 314 315 315 312 314 319 319 312 308 308 305 297 294 295 294 292 292 291 290 289 290 290 290 292 292 287 287 289 289 288 288 287 287 286 285 284 283 282 281 280 279 279 278 277 276 276 275 275 275 274 274 273 273 273 272 272 272 272 273 273 273 273 273 273
311 313 317 307 301 305 308 308 313 313 307 304 305 305 303 303 307 311 308 307 312 314 313 314 314 313 313 317 318 314 310 309 305 299 295 294 293 292 291 290 290 289 290 290 289 291 292 287 286 288 288 287 287 287 286 285 284 283 282 281 280 279 279 278 277 276 275 275 274 274 274 273 273 272 272 272 272 272 272 272 272 273 273 273 273 273
314 315 316 312 307 308 310 308 307 310 310 308 308 308 306 304 306 310 309 307 308 310 313 315 314 313 311 311 313 314 312 309 304 299 296 294 293 292 291 290 290 289 289 289 289 291 291 287 286 288 287 287 287 286 285 284 283 282 281 280 279 278 277 277 276 275 274 274 274 273 273 272 272 272 272 272 271 271 272 272 272 272 272 272 273 273
315 315 314 314 312 309 307 305 304 305 306 306 307 307 307 306 307 311 312 310 307 307 310 311 311 312 310 309 310 310 310 306 300 298 297 295 293 291 291 290 290 289 289 289 289 291 289 285 286 287 286 286 286 285 284 283 282 281 280 279 278 277 276 275 275 274 273 273 273 272 272 272 271 271 271 271 271 271 271 272 272 272 272 272 272 272
312 314 313 314 315 311 304 303 304 302 301 304 306 305 305 306 307 309 310 311 311 309 307 308 310 310 307 306 305 301 301 299 296 296 297 296 293 291 291 290 289 289 289 289 290 290 287 284 285 285 285 285 285 284 283 282 281 280 279 278 277 276 275 274 273 273 272 272 272 271 271 271 271 271 271 271 271 271 271 271 271 271 271 272 272 272
312 315 315 314 316 316 310 306 307 304 302 304 306 305 304 305 306 307 307 308 310 310 308 309 311 310 307 305 302 298 298 298 296 294 295 294 293 291 290 290 289 289 289 289 290 290 289 287 285 283 284 285 284 283 282 281 280 279 277 277 275 275 274 273 272 272 271 271 271 271 271 271 271 270 270 270 270 271 271 271 271 271 271 271 271 270
313 316 315 313 315 316 313 313 315 311 304 302 304 304 304 304 305 307 307 307 309 309 308 308 311 310 308 306 303 301 300 299 296 294 293 293 293 291 290 290 289 288 289 289 289 289 289 290 287 283 283 284 283 282 282 280 279 278 276 275 274 273 273 272 271 271 270 270 270 270 270 270 270 270 269 270 270 270 270 270 270 270 270 270 269 269
317 317 312 312 314 313 312 312 314 312 307 306 306 303 303 304 304 306 308 309 310 309 308 308 309 310 309 308 306 305 303 299 297 297 294 292 292 291 290 290 289 288 288 288 288 289 289 289 288 284 282 283 283 281 281 279 277 276 275 274 273 272 271 271 270 270 269 269 269 269 270 269 269 269 269 269 270 270 269 269 269 269 268 268 267 267
318 315 311 311 312 311 312 312 311 312 310 310 309 305 302 302 303 306 308 308 310 311 310 309 309 310 310 309 308 308 306 301 297 296 295 293 292 291 290 290 289 288 288 288 288 288 288 289 288 284 282 282 282 280 279 277 276 275 274 273 272 271 270 270 269 269 269 269 269 269 269 269 269 269 269 269 269 268 268 268 268 267 267 266 266 266
314 314 312 312 311 310 311 311 312 312 311 310 311 309 305 302 302 305 306 306 308 310 310 310 310 310 310 308 308 308 308 306 301 297 295 293 292 291 290 290 289 288 289 288 288 288 288 288 288 285 281 281 281 279 277 276 274 273 272 271 271 270 269 269 269 269 268 268 269 269 268 268 268 268 268 268 267 267 267 266 266 266 265 265 265 265
311 312 312 311 311 311 310 310 310 310 309 310 310 310 307 303 302 303 304 305 306 307 308 308 309 309 308 308 308 307 307 308 304 298 295 293 292 291 290 289 289 288 288 288 287 287 287 287 287 283 280 280 280 277 276 274 273 272 271 270 269 269 269 269 268 268 268 268 268 268 268 268 268 267 267 266 266 266 265 265 265 265 265 264 264 265
308 312 313 311 312 312 310 310 310 309 309 309 309 309 309 307 305 304 303 304 304 305 306 306 307 307 306 306 306 305 306 306 303 299 295 293 292 291 289 289 289 289 288 287 287 286 286 286 285 282 279 278 278 276 274 273 272 271 270 269 268 268 268 268 268 267 268 268 268 268 267 267 267 266 266 265 265 265 264 264 264 264 264 264 264 265
306 311 313 312 312 312 312 311 311 309 309 308 309 309 308 308 308 307 306 306 305 305 305 306 306 306 305 305 306 305 305 304 303 300 296 293 291 290 290 289 289 289 288 287 286 286 286 285 284 282 279 277 276 274 273 271 270 269 269 268 268 268 268 268 267 267 267 267 267 267 266 266 265 265 264 264 264 264 264 264 264 264 264 264 265 265
306 308 311 311 311 312 311 311 310 309 309 311 311 310 309 308 308 308 308 308 307 306 307 307 307 307 306 306 307 306 305 303 302 300 297 293 291 290 290 289 289 289 288 287 286 285 285 283 281 279 277 275 274 272 271 270 269 268 267 267 268 268 267 267 266 266 266 266 266 266 265 265 264 264 264 263 263 263 263 263 264 264 264 265 265 265
306 308 309 310 312 312 308 306 308 309 311 313 313 312 312 310 308 308 309 308 308 307 307 308 308 307 307 308 307 307 306 303 300 298 297 294 292 290 289 289 289 288 287 286 286 284 283 281 279 276 275 274 272 271 270 269 267 267 267 268 268 267 266 266 266 266 266 266 265 265 264 264 263 263 263 263 263 263 263 264 264 264 265 265 266 266
305 306 308 310 312 309 305 305 309 312 313 312 312 312 312 311 310 309 308 308 307 307 307 307 307 307 307 307 306 306 306 303 299 297 295 294 293 291 290 289 289 288 287 286 285 283 281 279 276 274 273 272 270 269 268 267 266 266 267 268 267 266 265 265 265 265 265 265 264 264 263 263 262 262 262 263 263 263 263 264 264 265 265 266 266 266
306 305 307 310 309 307 306 308 312 313 311 311 311 309 307 307 307 306 308 308 306 305 306 306 306 306 306 306 305 305 303 299 296 295 294 292 292 291 291 289 288 287 286 285 283 281 279 277 275 273 272 270 269 268 266 265 266 267 268 267 266 265 265 264 264 264 264 264 263 263 262 262 262 262 262 262 262 263 263 264 265 265 265 266 266 266
307 307 307 309 310 310 310 311 311 312 311 311 311 309 306 306 306 306 309 309 307 306 306 304 304 305 304 305 305 302 298 296 295 295 294 291 291 291 290 289 288 286 285 283 281 279 277 275 273 272 270 269 267 266 265 265 266 267 267 266 265 264 264 264 264 263 263 262 262 262 262 261 261 261 262 262 262 263 264 264 265 265 265 265 266 266
306 308 308 309 311 311 312 312 312 313 313 312 310 308 306 305 305 306 307 308 307 307 307 305 305 304 303 304 301 297 296 297 298 298 294 291 289 289 289 287 286 284 281 278 276 275 274 273 271 270 269 267 266 265 264 265 267 267 266 264 264 263 263 263 263 262 261 261 261 261 261 261 261 261 261 262 262 263 264 264 265 265 265 265 265 265
304 307 308 309 311 311 312 313 313 314 315 312 307 303 302 303 304 305 307 307 307 307 307 306 305 304 304 302 297 295 297 299 300 299 295 289 287 287 286 284 282 279 277 275 274 273 271 270 269 268 267 266 265 264 264 266 267 266 264 263 263 263 262 262 262 261 260 260 261 261 261 261 261 261 262 262 263 263 264 264 264 264 264 264 264 265
304 305 307 308 310 311 312 312 312 312 313 310 305 299 297 301 305 308 310 310 309 309 308 305 304 303 303 299 295 295 299 300 300 298 292 287 286 285 284 281 279 277 275 273 273 272 270 269 268 267 266 265 264 264 265 266 266 264 263 262 262 262 262 261 261 260 260 260 260 261 261 261 261 262 262 262 263 263 264 264 264 264 264 264 264 265
303 305 305 307 309 310 311 313 312 312 311 306 301 297 297 302 307 311 312 310 310 311 307 302 302 302 299 296 294 295 298 298 298 293 287 284 285 283 280 278 276 275 273 272 271 270 269 268 267 266 265 264 263 264 265 266 265 263 262 262 262 261 261 260 260 260 260 260 260 261 262 262 262 262 262 263 263 263 263 263 263 264 264 264 264 265
304 304 304 306 308 308 310 312 310 312 311 303 297 296 299 305 309 310 309 308 310 311 305 300 300 300 297 294 294 295 296 295 292 288 284 284 284 281 278 276 275 273 272 271 270 268 267 266 266 265 264 263 264 265 265 265 264 262 261 261 261 261 261 260 260 260 259 260 260 261 262 262 262 262 262 263 263 263 263 263 263 263 263 264 264 265
306 305 304 306 307 307 309 310 310 312 310 301 296 297 300 305 310 309 307 306 307 308 304 299 297 297 295 294 293 294 294 291 287 285 284 283 282 279 276 275 274 273 271 270 269 268 266 266 265 264 263 263 263 264 265 265 264 262 261 261 261 261 262 261 260 259 259 260 260 261 262 262 262 262 262 262 262 262 262 263 263 263 263 264 265 265
308 307 307 307 307 308 308 308 310 312 306 299 300 302 301 303 307 309 307 304 301 300 299 298 296 294 294 294 293 292 291 288 286 285 284 282 280 277 276 275 274 272 270 269 268 267 266 265 264 263 262 262 263 263 264 264 264 262 261 261 261 262 263 262 260 259 260 260 260 261 261 262 262 262 262 262 262 262 262 262 262 263 264 264 265 266
310 310 311 310 308 308 309 309 309 309 302 298 301 306 303 300 303 307 307 305 300 296 295 296 296 293 292 293 292 290 289 287 285 285 284 281 279 277 275 274 272 270 269 267 267 266 265 264 263 263 262 262 262 262 262 263 263 262 261 261 261 262 263 262 260 260 260 260 260 261 261 261 262 262 262 261 261 261 261 262 262 263 264 265 265 266
311 310 311 312 309 307 308 309 308 307 303 299 300 302 302 301 302 304 305 303 299 296 294 295 295 293 292 292 291 290 289 287 285 284 283 281 278 277 275 273 271 269 268 266 266 265 264 263 263 263 262 262 261 262 262 262 263 262 261 262 262 262 261 260 259 259 259 260 260 260 261 261 261 261 261 261 261 261 261 261 262 262 264 265 265 266
310 308 308 310 310 309 310 311 309 307 306 302 299 299 301 300 299 300 301 300 297 295 294 294 294 292 292 292 291 290 288 286 285 284 282 280 278 276 274 272 270 268 266 266 265 263 263 263 262 262 262 262 261 261 262 262 262 261 261 262 263 262 260 259 259 259 259 260 260 260 260 261 261 261 261 261 261 261 261 261 262 263 264 265 265 266
310 308 306 307 309 310 312 314 311 307 306 304 300 298 299 299 297 297 298 297 296 294 293 293 293 292 291 291 291 290 288 286 285 284 282 280 278 276 273 271 270 268 266 265 264 263 263 263 262 261 261 261 261 261 262 262 262 262 262 263 263 262 261 260 259 259 259 259 259 260 260 260 260 260 260 260 260 260 260 261 262 263 264 264 266 267
310 308 308 308 308 309 311 312 309 306 305 305 301 298 299 299 298 296 295 295 295 294 293 293 292 291 291 291 290 289 288 286 285 284 282 279 277 275 273 271 268 267 266 264 263 263 264 264 263 261 261 261 261 261 262 262 262 262 263 263 262 261 261 260 260 259 259 259 259 260 260 260 260 260 260 260 260 260 260 261 262 263 264 264 266 267
310 310 309 309 309 309 310 310 310 309 308 307 304 300 299 300 299 296 294 294 295 294 293 293 292 291 291 291 290 289 288 286 285 283 281 279 277 274 272 270 267 266 264 263 262 262 263 264 263 262 261 261 261 262 262 262 262 262 262 262 261 261 260 260 260 259 259 259 259 259 259 259 259 259 259 260 260 260 260 260 261 262 263 265 266 267
312 313 311 309 310 311 311 310 310 310 310 310 308 304 300 299 299 297 295 295 295 293 293 293 292 291 290 290 290 289 288 286 284 282 281 279 276 274 271 268 267 265 263 262 262 261 261 262 262 262 261 260 261 262 262 262 261 261 261 261 261 260 260 259 259 259 258 259 259 259 259 259 259 259 259 259 259 259 259 260 260 261 262 264 265 266
Wind_Speed
5 3 2 4 5 6 7 6 6 5 5 4 3 4 5 5 7 8 4 4 1 2 8 8 8 12 15 17 12 8 10 11 12 12 10 10 11 11 12 12 11 10 9 15 22 23 22 19 15 11 9 7 6 4 2 1 1 5 7 8 8 10 13 17 20 22 24 25 26 27 27 28 29 30 30 32 33 33 33 33 34 35 35 35 35 36
5 2 5 8 9 8 6 6 5 3 3 2 3 4 5 5 8 9 4 5 2 3 7 5 6 11 13 17 14 7 10 13 15 16 15 14 13 12 13 14 11 8 7 12 17 20 22 19 15 12 9 7 6 4 3 0 2 5 7 7 8 10 14 18 21 23 24 24 24 24 24 25 26 28 28 29 30 29 28 29 31 32 33 33 34 35
4 3 9 8 6 5 4 5 6 3 3 3 2 2 4 4 4 8 4 5 2 2 6 6 6 11 12 17 18 9 11 14 16 18 17 16 16 14 14 13 12 10 9 10 12 17 21 19 16 13 8 7 5 4 3 1 4 6 7 7 9 12 15 19 21 23 23 23 23 23 24 25 26 26 26 26 26 25 25 27 29 29 30 32 33 34
1 5 7 4 6 7 3 2 4 1 1 4 3 2 5 4 1 5 4 5 4 2 6 9 9 9 10 15 19 12 10 12 13 15 14 13 15 15 14 13 13 14 13 11 11 12 17 19 16 12 9 7 6 5 3 2 5 7 8 8 10 13 16 19 21 22 22 22 24 25 26 27 26 26 26 25 24 23 25 28 29 30 31 32 33 34
6 6 2 6 6 6 3 1 2 2 3 4 6 6 6 6 5 6 4 5 6 4 4 9 9 7 7 12 14 6 3 9 10 9 11 11 11 10 10 11 13 14 13 12 12 10 12 17 16 12 9 8 8 6 3 2 5 7 7 8 10 13 16 19 21 22 22 23 25 28 29 30 28 28 28 27 28 29 30 33 34 35 35 34 34 33
7 4 4 6 3 4 5 3 4 6 3 5 5 9 9 8 7 5 5 6 5 4 3 7 7 6 3 6 10 5 3 8 6 7 12 12 9 8 10 12 12 11 10 11 12 11 12 16 16 13 11 10 10 7 3 3 5 7 7 8 10 13 16 19 20 21 22 23 25 27 27 27 26 26 26 26 29 33 34 35 36 37 37 36 36 35
3 2 4 6 5 4 4 4 5 7 3 4 4 6 7 4 2 2 4 4 1 3 2 4 2 8 3 3 10 8 7 11 7 8 13 11 9 11 12 12 11 11 10 8 9 11 12 14 16 14 13 12 11 8 3 3 5 6 6 8 10 13 16 18 20 21 22 23 24 25 24 23 23 23 25 25 27 31 33 35 37 37 37 36 37 37
3 2 4 4 5 5 4 5 6 8 6 3 4 4 5 4 1 2 3 1 3 3 4 3 4 8 8 5 9 8 8 13 11 11 12 10 11 14 13 11 11 13 11 8 9 10 11 14 16 16 15 13 11 8 4 3 5 6 6 8 10 13 16 19 20 20 21 22 23 24 24 24 24 24 27 29 29 31 34 36 39 39 39 38 37 37
3 4 5 5 4 4 6 6 7 10 5 5 4 4 5 4 3 3 3 1 2 3 6 5 7 4 9 5 3 3 4 12 14 15 14 12 14 14 12 11 12 12 10 9 10 10 11 16 18 17 14 12 12 9 4 4 5 6 6 8 11 13 17 19 19 19 20 22 22 23 24 25 26 26 28 30 32 34 35 36 38 39 40 40 39 38
0 4 7 8 5 6 6 3 6 9 4 3 4 4 4 5 4 3 3 1 2 2 9 7 7 4 8 4 2 2 3 10 12 12 12 11 13 12 10 11 11 10 9 9 10 11 14 18 18 16 13 12 11 9 5 5 6 6 6 8 11 15 18 18 18 19 21 22 22 23 24 25 27 27 28 30 32 34 35 36 38 39 39 40 40 39
3 1 3 4 4 6 4 2 1 4 3 2 5 4 5 5 4 4 2 3 3 4 10 8 11 8 6 3 6 4 5 7 8 8 8 7 9 9 10 11 12 10 9 9 9 10 15 18 17 14 13 12 11 8 6 6 6 6 7 8 12 16 17 17 18 18 20 21 21 22 23 24 26 27 28 29 31 33 34 36 38 38 39 39 40 40
5 1 2 2 2 4 6 4 2 2 2 4 4 4 4 4 4 4 4 4 1 6 7 4 8 9 8 6 5 5 6 6 6 7 8 8 9 10 10 11 11 10 9 9 8 9 12 13 12 13 13 12 11 9 7 6 6 6 7 8 13 17 17 17 18 18 19 20 21 22 23 24 26 26 27 28 31 32 32 34 36 37 38 40 42 42
3 4 3 3 1 5 6 4 2 5 4 4 4 4 3 4 4 3 3 0 3 7 4 2 4 5 11 10 9 10 11 10 9 9 10 9 8 10 11 11 10 9 9 10 9 8 8 8 10 13 14 13 12 10 7 7 7 7 7 9 13 17 18 17 18 19 19 20 21 23 23 25 26 26 27 28 30 31 31 32 35 37 39 42 44 44
4 5 1 1 2 3 8 5 2 2 1 4 4 4 3 1 1 4 4 3 5 6 3 4 3 5 9 8 12 16 16 13 9 8 9 7 8 11 11 11 9 9 10 10 9 8 7 8 11 14 14 14 12 10 8 8 8 7 8 10 14 17 18 18 19 19 20 20 22 23 24 25 26 26 27 27 29 31 32 33 36 38 40 42 45 45
3 6 3 5 2 4 9 6 5 5 4 4 4 4 5 5 3 4 4 4 6 7 4 3 3 4 4 3 7 11 10 7 5 6 6 6 7 8 8 9 9 10 10 8 9 8 7 10 14 15 15 14 12 10 9 8 8 7 8 12 15 18 19 19 19 19 20 21 23 23 24 25 25 26 27 27 28 30 33 35 37 39 40 41 45 47
3 7 6 2 1 5 6 3 4 6 2 2 3 4 3 5 5 3 4 4 1 6 6 3 4 6 4 4 6 5 5 4 4 5 3 5 6 6 7 9 10 10 10 9 9 8 8 11 15 15 16 15 12 10 9 8 7 7 10 13 15 17 18 19 19 20 21 22 23 24 25 25 25 26 27 29 30 31 33 35 37 40 41 42 44 46
2 6 4 1 1 3 3 2 2 3 3 2 2 3 4 4 5 2 4 2 4 3 6 3 6 8 6 7 6 4 3 6 5 5 3 5 5 7 8 9 10 11 10 10 9 8 8 11 13 16 16 14 11 10 9 7 6 8 11 13 15 17 18 19 20 21 23 23 24 24 24 25 26 26 28 29 31 33 34 35 37 39 42 43 43 45
3 5 4 2 2 2 1 1 2 2 3 5 3 5 3 2 4 3 1 3 3 3 6 4 9 12 6 6 4 2 2 9 8 5 4 4 6 8 9 9 10 11 10 9 8 8 8 10 14 17 16 13 10 8 8 6 6 10 12 13 15 17 18 20 22 23 23 23 24 25 25 25 26 27 29 30 32 33 35 37 38 38 41 42 43 44
2 3 4 1 2 3 3 1 1 3 3 5 3 3 2 3 1 2 2 2 1 3 7 5 8 14 9 6 7 4 7 10 9 5 5 6 9 10 9 9 10 9 9 9 8 8 7 9 13 16 15 12 9 7 7 6 7 11 12 13 14 16 19 21 22 22 22 23 24 25 26 26 27 28 29 30 32 34 35 37 38 39 40 42 42 43
3 2 4 2 2 2 3 1 4 2 2 2 0 1 1 3 4 3 3 3 3 3 7 5 8 14 9 6 8 8 9 10 9 7 8 11 12 11 9 10 10 11 11 9 9 8 7 9 14 15 13 11 8 7 7 6 9 12 13 13 15 18 21 21 22 22 23 24 25 26 27 28 28 29 30 30 32 33 35 36 37 38 39 41 42 42
3 2 4 2 3 1 2 4 7 8 5 3 2 2 2 1 2 1 2 2 3 4 5 3 8 15 6 5 7 8 8 10 10 9 10 12 12 11 10 10 11 12 11 9 8 8 7 9 13 14 11 9 8 7 6 6 10 11 12 14 17 19 21 22 22 22 24 25 26 27 28 29 30 30 31 31 32 32 34 35 35 37 38 40 42 41
3 3 3 2 1 4 5 4 4 7 7 6 6 7 7 5 3 1 4 3 3 4 5 3 8 17 7 4 5 6 7 9 9 10 10 11 12 11 10 12 13 12 11 10 9 8 7 8 12 12 10 9 8 6 5 7 10 11 13 15 17 18 19 21 22 23 24 25 26 27 28 30 30 31 31 32 33 33 33 34 35 36 38 39 40 40
3 3 2 4 5 6 5 3 1 2 3 3 5 5 6 6 6 5 7 5 2 4 4 3 7 17 6 4 4 5 6 7 7 10 10 10 11 11 11 11 11 10 10 9 8 7 7 9 12 11 9 8 7 6 6 8 9 11 13 14 16 17 18 20 22 23 24 25 26 27 29 30 31 31 32 32 33 34 34 35 35 35 36 38 38 37
2 2 3 5 4 2 3 4 3 3 2 3 6 5 6 8 8 7 6 3 2 4 4 3 10 17 4 3 2 1 2 4 6 9 11 9 8 9 11 11 10 10 9 8 8 7 7 9 10 9 8 9 8 7 7 7 9 11 13 14 15 16 18 20 21 22 23 24 26 28 29 31 31 31 32 33 33 34 35 35 35 34 34 35 35 34
3 2 3 4 5 5 3 3 3 3 1 5 6 5 9 11 8 3 1 1 4 9 8 5 14 17 5 3 2 3 3 4 5 7 9 8 7 8 10 10 10 9 8 9 8 7 7 7 6 7 10 10 7 6 6 7 9 11 12 13 14 16 18 20 21 22 23 24 27 29 30 31 32 33 34 34 34 34 34 34 34 34 33 33 33 33
5 4 5 6 7 8 7 5 4 3 3 3 4 7 12 14 12 6 2 5 10 10 9 10 17 19 12 2 1 5 6 6 7 7 7 7 8 8 8 9 10 10 10 11 10 8 7 6 5 8 10 8 5 4 5 7 9 11 12 13 14 15 18 19 20 22 23 25 28 31 33 34 35 35 34 33 33 33 34 35 34 33 33 32 32 33
3 3 8 11 12 12 14 12 5 6 4 5 7 11 14 15 16 10 5 8 9 4 7 18 21 21 23 16 8 11 11 8 8 8 8 8 8 8 9 10 10 10 10 10 9 8 7 6 6 7 8 6 4 4 5 7 10 11 12 13 14 15 17 19 20 22 24 26 28 30 33 35 35 33 31 31 33 35 35 34 33 32 32 31 32 33
3 5 13 16 17 18 19 17 7 7 7 10 10 12 13 13 14 13 14 17 9 3 10 25 23 19 28 26 17 17 16 9 9 10 10 10 9 9 10 10 10 10 9 9 9 9 8 7 6 6 7 6 4 4 6 8 9 10 11 13 14 15 17 19 21 23 24 25 27 29 31 33 32 30 29 31 33 34 34 33 32 31 31 32 32 33
4 9 15 15 16 20 20 20 12 7 10 11 12 15 13 12 15 19 23 23 13 9 19 27 24 23 27 27 22 20 16 11 12 12 11 10 9 9 9 10 11 12 12 12 11 9 9 7 6 5 6 6 5 5 7 9 8 9 11 12 13 15 17 19 22 23 23 24 25 27 30 31 30 29 29 31 33 33 33 32 33 34 35 35 35 35
4 10 15 11 12 17 20 18 12 11 13 12 19 24 14 14 19 23 23 23 19 21 26 27 27 29 28 26 25 21 14 10 9 8 8 9 9 10 11 13 14 15 14 13 11 9 8 7 6 6 7 7 6 6 8 8 8 9 11 11 13 15 18 21 22 22 23 23 24 26 28 29 29 29 30 32 33 33 34 35 37 38 39 40 39 38
5 8 9 6 7 15 18 14 9 11 13 13 24 29 18 15 20 20 19 20 19 22 27 27 25 26 26 26 24 19 13 9 8 8 9 10 11 12 13 14 15 15 14 12 10 9 7 7 7 6 6 7 7 7 7 7 8 8 10 11 14 17 19 21 21 21 22 24 25 27 28 29 29 31 32 34 35 36 37 38 39 40 41 41 40 38
6 4 1 3 6 14 12 6 5 5 4 11 26 32 24 18 19 19 19 19 18 20 24 23 18 20 24 23 18 13 10 10 12 12 10 9 11 14 14 15 16 15 14 12 10 9 8 8 7 6 7 8 8 7 6 6 7 8 9 12 15 18 20 20 20 21 22 24 26 26 27 28 30 32 34 35 36 37 37 38 39 40 41 41 40 38
7 6 3 4 7 12 5 4 4 4 3 11 22 25 23 19 19 20 21 21 22 20 17 16 17 20 22 18 15 13 11 11 13 12 10 10 11 13 15 16 17 15 14 13 11 10 9 8 7 8 9 10 9 7 4 4 5 7 9 13 16 18 19 19 20 21 22 24 25 26 27 29 31 33 35 35 37 37 37 38 39 40 41 41 40 38
7 9 6 5 6 8 3 6 5 2 7 13 10 8 14 18 21 24 24 25 24 20 17 19 20 21 21 16 15 17 14 10 10 10 10 10 10 12 14 15 14 13 12 11 10 10 8 7 8 11 12 10 7 4 2 3 5 7 10 14 16 17 17 19 20 21 22 24 26 27 29 30 31 33 35 37 38 38 37 38 39 40 40 38 36 36
9 9 6 4 3 3 2 5 2 9 13 8 4 2 10 14 17 20 22 25 25 20 19 21 23 25 25 19 17 17 14 9 8 9 10 10 11 12 14 13 12 12 12 11 11 9 8 8 10 12 12 9 6 3 1 3 5 9 12 14 16 16 16 18 19 20 22 24 27 28 30 31 31 33 36 37 38 38 37 37 37 38 37 34 32 34
10 8 4 3 3 1 2 5 10 11 9 13 12 5 4 2 4 6 12 22 23 17 16 20 24 26 25 21 17 11 6 3 3 6 8 10 11 12 13 13 13 14 13 12 11 10 10 12 14 14 12 8 5 3 0 3 6 10 13 14 14 15 16 17 18 20 22 24 26 28 29 31 32 34 35 37 37 37 37 37 35 35 35 34 33 32
10 8 5 5 6 6 7 10 11 9 13 22 20 8 7 6 7 7 8 20 19 12 15 19 22 23 22 20 12 2 4 2 4 7 8 8 9 9 10 11 13 13 11 11 13 15 17 17 16 14 12 9 6 2 1 4 8 12 13 13 14 15 16 17 17 19 22 24 26 28 30 30 32 34 35 36 36 36 36 35 34 33 34 34 34 33
11 10 9 9 8 8 8 9 9 7 13 20 13 4 7 9 9 9 5 15 17 10 14 15 17 20 20 14 5 5 6 1 7 9 7 7 8 7 6 8 10 10 11 15 18 19 19 18 16 13 11 9 6 2 2 5 9 12 12 13 14 15 15 16 17 19 22 25 28 30 30 30 31 33 34 34 35 35 35 34 33 34 33 33 34 34
12 9 9 8 7 8 8 10 10 10 15 16 6 4 5 8 9 9 2 12 14 9 13 14 16 18 15 8 8 8 5 3 9 10 6 10 9 9 11 10 9 10 16 22 23 22 21 18 16 13 11 8 5 2 3 7 10 12 11 12 12 13 14 15 18 21 23 26 28 29 29 30 30 31 32 34 34 34 34 34 33 34 33 33 34 34
10 8 7 8 10 12 11 11 9 8 11 9 5 6 6 9 11 8 3 13 9 7 12 15 15 14 9 9 10 8 8 9 9 5 7 11 9 9 12 12 9 9 15 21 22 22 21 19 16 13 10 8 6 3 5 8 10 11 10 11 11 12 14 16 19 22 24 26 27 27 28 29 30 31 32 33 33 33 33 33 33 33 34 34 33 33
5 6 6 9 13 15 15 13 8 7 9 5 9 11 9 7 8 3 11 13 5 7 9 12 12 10 9 11 10 9 9 7 3 5 10 12 11 9 10 12 14 16 19 21 22 21 19 17 15 13 10 8 6 5 7 8 10 10 10 11 11 13 15 17 20 22 23 24 25 26 28 29 29 31 31 31 32 33 32 32 32 33 33 33 32 33
4 4 5 8 11 11 12 10 5 8 10 8 13 13 10 6 4 10 9 3 5 7 7 9 11 9 10 13 12 9 5 3 7 11 12 13 13 12 10 10 13 15 17 19 20 20 19 16 14 13 10 7 7 7 7 8 9 10 10 11 11 13 16 18 20 21 22 23 24 25 27 28 29 30 31 31 31 32 33 32 31 31 32 31 31 32
8 5 4 7 7 5 7 7 4 9 8 16 18 8 6 9 13 11 4 1 4 8 8 8 10 9 11 12 11 7 5 6 9 11 12 12 13 12 11 10 10 11 14 17 18 18 18 16 13 13 11 8 8 7 6 7 9 9 9 9 11 13 16 17 19 20 21 22 23 24 26 27 28 29 30 31 31 31 31 32 32 32 31 28 29 30
8 7 6 7 7 5 6 10 10 10 7 19 19 11 14 19 16 8 6 6 4 6 7 8 8 9 11 12 10 8 7 8 10 12 12 12 12 12 12 10 9 10 14 17 18 19 18 16 15 13 12 10 8 7 6 7 8 9 9 9 11 13 15 17 19 19 20 21 22 23 25 26 27 28 29 30 31 30 30 31 32 31 30 28 28 27
12 14 8 5 7 8 9 12 11 5 7 15 17 13 14 19 14 5 7 8 5 6 8 7 8 10 11 11 11 10 9 9 11 13 13 13 13 14 13 11 11 13 15 17 18 18 17 17 17 16 13 10 8 6 6 6 7 8 8 8 11 13 14 16 18 18 19 20 21 22 23 25 26 28 28 28 30 30 30 30 30 30 29 29 28 26
9 10 3 1 5 7 9 12 9 3 6 15 19 11 5 9 10 5 6 7 7 8 8 8 10 12 11 11 11 10 9 11 13 13 12 13 13 12 11 9 10 15 17 16 17 18 18 17 18 17 14 11 7 6 5 6 6 6 7 8 10 12 13 14 16 17 18 19 20 21 22 23 25 27 28 27 28 29 30 29 28 28 29 28 28 33
4 6 5 5 6 5 9 17 16 14 15 15 15 13 10 9 9 8 9 9 7 9 10 10 10 12 12 13 13 12 11 13 15 12 11 12 12 9 9 8 8 12 15 17 18 20 19 18 16 15 14 12 8 5 5 5 5 5 6 7 9 10 11 13 14 16 17 18 20 21 21 22 24 26 28 28 28 28 29 30 28 27 27 26 30 36
5 8 7 9 10 10 15 19 12 10 16 17 13 13 14 14 12 11 11 9 7 9 10 9 9 11 12 12 13 13 13 14 15 14 13 12 10 8 8 9 9 10 14 18 20 20 18 17 16 15 14 12 8 6 5 4 4 5 5 6 7 8 10 12 12 14 16 17 18 19 20 21 23 24 26 28 29 28 28 29 29 28 27 28 30 32
5 8 9 11 13 12 16 20 10 3 10 16 15 16 18 19 17 13 9 7 8 10 10 9 9 11 13 14 13 14 14 14 15 16 15 13 10 8 7 8 10 13 17 20 20 18 18 18 17 16 15 12 10 7 6 5 4 4 4 5 6 7 9 11 12 13 14 16 17 18 19 21 23 23 23 25 27 28 28 26 26 26 27 30 31 30
7 10 9 8 9 11 16 23 19 11 11 16 18 22 24 20 14 11 10 10 12 13 13 11 9 9 12 13 14 15 16 14 14 16 16 14 13 11 10 11 12 13 18 20 18 16 17 18 18 18 16 13 10 9 7 6 5 3 3 3 5 6 7 9 11 12 14 15 16 17 19 21 22 23 23 23 24 27 29 28 25 23 23 27 31 31
14 18 14 11 14 18 21 24 21 14 14 18 18 18 19 15 13 14 16 16 16 16 15 15 13 11 10 11 12 16 17 15 15 16 14 13 13 13 15 16 15 14 18 22 20 17 17 17 17 18 16 13 11 10 8 7 5 3 3 3 4 4 5 7 9 11 13 14 15 16 18 19 21 22 23 23 22 23 26 29 30 29 26 26 29 31
Wind_Direction
80 61 302 236 229 230 223 189 168 173 168 183 208 221 242 244 272 275 253 278 279 234 264 242 238 260 268 273 260 197 198 215 222 227 216 206 207 206 206 207 203 202 203 196 189 185 183 176 165 151 140 143 143 140 136 123 353 358 3 5 10 6 1 360 0 2 3 4 1 359 357 350 347 345 344 344 344 343 342 340 338 336 336 334 333 333
62 60 251 226 214 209 203 177 139 132 163 197 214 241 268 224 255 279 284 308 300 182 265 250 236 258 260 272 270 183 184 220 217 219 220 208 209 210 207 207 203 202 201 195 192 190 188 181 172 160 148 155 157 157 171 183 342 354 360 359 1 358 357 358 358 360 1 0 357 354 350 346 343 342 342 340 338 338 336 335 333 332 331 330 329 328
21 264 246 229 190 147 114 131 135 152 178 186 191 216 274 239 263 292 305 334 348 159 269 276 263 264 260 268 269 222 195 224 219 214 218 208 207 210 206 204 198 198 199 193 194 193 192 187 178 167 157 167 174 173 190 281 342 353 355 352 353 353 354 355 356 357 357 354 352 349 347 345 341 339 339 334 333 333 331 329 328 327 326 325 325 325
314 254 241 197 140 134 104 67 119 120 221 187 180 194 262 263 277 283 298 334 325 246 270 288 280 265 260 262 267 250 211 228 230 221 223 213 211 212 206 202 196 196 196 189 192 193 193 194 184 167 164 180 187 192 211 309 342 350 351 345 347 349 351 353 354 354 351 348 346 346 346 344 341 337 335 331 330 329 326 326 326 325 324 323 323 323
241 249 163 110 111 143 167 333 146 192 281 242 203 205 241 259 232 234 285 331 325 310 312 319 300 261 238 246 261 282 239 245 240 225 231 224 219 213 203 208 204 199 194 186 189 188 191 197 186 168 174 192 196 201 224 317 343 345 344 339 341 345 348 350 351 349 347 344 344 345 345 344 342 337 335 333 331 329 327 326 326 325 324 322 320 320
261 258 124 118 96 123 161 233 209 186 250 295 230 211 225 244 246 263 326 348 350 331 353 10 327 272 222 238 259 290 295 260 235 217 232 225 212 204 203 208 204 203 200 189 187 183 189 191 179 174 187 199 202 204 224 316 338 337 333 334 337 342 346 347 347 346 344 342 343 345 343 340 337 332 330 329 327 325 324 323 322 321 321 320 319 318
269 342 87 128 136 128 165 242 239 172 144 304 249 200 203 210 240 303 3 10 335 274 295 64 319 274 269 222 254 263 265 264 246 226 235 226 209 208 211 207 195 199 200 190 184 180 187 183 175 184 197 201 205 204 221 307 327 326 324 331 335 337 342 343 343 344 340 340 341 340 337 333 328 321 319 320 319 318 319 319 318 318 317 317 317 317
168 84 60 103 121 135 181 243 231 159 134 247 230 135 123 117 144 162 84 25 239 274 287 171 168 273 277 235 247 259 264 271 266 248 241 225 215 217 214 204 195 198 192 180 180 179 183 180 180 193 201 203 203 201 224 297 314 318 321 326 330 332 336 340 340 339 336 337 338 335 332 327 323 318 316 317 318 317 318 318 317 317 316 316 315 314
158 164 187 155 129 176 209 224 192 158 159 243 203 120 98 100 130 142 102 270 283 3 293 221 148 259 277 246 266 314 259 266 265 255 247 227 218 219 211 201 198 197 186 176 177 178 182 181 187 197 199 202 201 201 238 292 309 317 316 317 323 327 333 337 336 333 334 336 334 330 328 323 320 318 315 317 318 318 319 317 316 315 315 315 314 313
206 205 193 154 159 211 219 230 181 165 192 225 136 98 57 64 70 70 76 43 37 348 269 240 153 217 273 226 176 37 237 252 259 256 251 232 221 215 203 200 198 191 183 181 178 176 180 182 190 197 198 203 201 204 244 287 304 312 309 309 317 324 331 333 330 330 333 334 329 326 324 320 319 318 316 317 317 317 318 315 314 313 313 313 313 311
322 317 173 150 188 196 155 96 151 154 166 119 87 50 18 28 44 45 53 68 49 273 262 236 174 188 276 242 174 188 214 224 242 259 259 238 218 203 197 199 195 187 182 182 180 176 179 184 189 194 200 204 201 210 243 280 298 302 302 303 310 321 328 327 325 330 331 329 324 322 321 318 317 317 317 317 315 315 315 313 312 312 312 311 309 308
339 341 226 252 189 135 100 80 43 31 75 93 72 47 8 340 12 16 359 46 52 256 264 240 174 186 243 243 203 233 246 223 224 251 255 234 212 199 198 199 192 185 180 176 178 178 178 184 190 194 203 205 203 217 245 274 288 293 294 297 308 318 324 323 325 330 327 323 322 321 320 318 317 316 314 313 310 311 311 310 309 309 309 308 306 305
309 230 255 314 206 140 111 88 14 354 37 89 90 74 43 337 353 342 312 48 225 249 255 124 143 214 243 244 240 249 258 251 231 232 245 235 208 199 199 197 189 179 178 176 175 178 178 186 192 195 204 205 207 225 248 267 278 282 284 296 309 315 320 323 327 329 324 322 322 321 320 318 317 314 311 309 307 307 308 307 307 306 306 305 303 303
295 293 314 194 264 173 150 153 203 262 138 146 148 126 126 111 336 276 271 270 266 269 250 133 132 261 271 258 234 232 241 249 241 234 242 232 201 200 199 190 182 178 180 179 173 176 179 187 193 195 200 203 210 230 247 261 271 270 282 305 312 312 318 325 327 326 323 322 321 320 319 318 315 312 309 307 306 306 306 305 304 303 302 301 301 301
243 294 230 179 229 181 178 186 165 143 144 175 160 136 150 154 180 231 238 246 282 302 273 160 149 246 268 257 219 230 249 257 264 261 250 235 206 196 190 179 177 181 182 178 175 177 182 188 193 195 197 202 212 230 246 258 260 265 294 312 312 312 320 325 325 324 323 321 321 320 319 317 314 311 309 307 305 305 304 304 303 301 300 299 299 299
202 264 254 223 240 169 182 204 129 117 115 204 133 113 173 184 172 202 235 214 283 319 284 207 210 230 247 261 216 219 273 269 296 303 247 221 204 175 181 183 179 183 182 179 178 179 188 190 192 194 197 203 215 230 245 252 252 279 308 315 312 315 319 321 322 324 324 322 321 320 318 316 314 312 310 308 306 305 304 303 302 300 299 298 298 299
197 270 278 351 304 170 177 224 142 144 176 165 136 178 215 182 138 148 275 326 70 294 272 264 268 276 312 289 221 162 250 257 284 300 229 208 194 179 194 191 183 187 184 181 179 177 186 190 192 195 197 204 216 231 243 244 260 298 313 314 314 314 316 321 325 326 325 322 320 318 318 317 316 314 311 309 307 306 304 302 300 299 299 298 298 299
191 268 262 140 203 239 211 227 1 14 130 130 178 216 197 125 98 108 262 338 39 253 270 293 280 281 296 290 275 103 235 251 253 248 226 215 201 202 207 193 187 188 181 180 180 180 186 188 192 195 198 207 217 231 239 240 275 305 314 315 313 312 318 326 329 326 324 321 319 318 318 318 316 314 312 309 307 306 304 302 301 299 298 298 299 299
144 257 279 107 218 298 10 66 326 347 76 125 190 215 128 138 156 101 154 242 202 241 271 291 292 280 257 247 275 239 205 235 241 214 202 214 211 212 208 191 187 184 180 183 182 186 190 187 192 194 198 208 217 227 231 244 287 306 313 312 311 316 325 329 327 323 321 319 319 318 318 318 316 314 311 309 307 306 304 302 301 300 299 299 299 299
116 208 276 347 292 306 20 132 192 229 44 81 308 338 38 163 171 162 171 193 174 221 271 301 311 286 252 200 239 229 198 215 222 197 203 215 214 212 200 188 187 186 188 188 183 185 190 190 193 194 199 208 214 217 223 260 297 305 308 311 320 329 330 328 324 322 321 320 320 319 319 319 317 314 312 310 308 306 304 302 301 301 300 300 299 298
101 195 245 323 337 266 193 203 194 187 172 168 210 229 224 162 129 221 218 164 165 217 255 288 287 277 259 157 210 218 198 210 208 195 209 218 216 210 198 190 190 191 190 184 181 184 186 190 191 193 200 205 206 212 232 281 297 300 308 321 332 332 327 324 323 322 321 321 322 321 319 318 317 315 314 312 311 307 305 304 302 302 302 300 298 298
158 184 198 185 251 216 219 237 205 193 183 181 195 199 197 179 144 226 254 216 175 222 220 169 267 270 262 145 197 194 187 210 203 193 207 218 216 206 198 197 193 192 190 181 181 181 177 186 190 192 198 197 199 217 253 283 291 301 321 334 332 325 322 321 321 321 321 321 321 319 318 317 317 317 317 315 313 310 308 307 305 304 304 301 299 299
138 133 187 218 224 220 241 282 259 218 218 211 214 193 182 177 164 191 235 226 170 235 223 125 266 267 256 134 190 193 198 218 197 192 206 216 214 202 196 200 195 192 190 178 175 177 174 182 186 188 191 190 199 226 255 276 296 319 330 331 324 320 320 320 319 321 321 319 319 319 319 320 320 321 319 317 316 313 311 309 308 307 304 302 301 299
108 126 215 261 293 337 330 335 357 21 38 247 239 186 177 203 197 198 215 182 153 229 203 138 256 262 275 85 226 246 266 244 198 197 211 212 209 202 194 195 194 190 186 177 175 176 173 176 177 179 185 190 203 230 257 291 319 328 325 320 319 318 318 320 321 321 320 319 320 321 322 323 323 323 322 321 318 316 314 312 310 309 306 303 302 300
191 172 178 251 295 316 331 344 329 325 256 232 236 190 202 218 203 168 110 132 241 234 195 197 253 258 270 51 336 316 302 264 229 213 220 214 201 201 196 193 193 186 179 178 176 174 174 173 173 179 186 192 207 240 283 317 323 318 315 315 316 315 318 322 322 320 320 321 323 325 326 326 326 326 326 324 320 316 315 313 312 311 308 305 304 302
184 179 172 205 234 247 250 234 215 222 211 225 232 203 211 214 198 187 188 217 242 232 189 213 251 261 266 263 9 286 263 254 252 237 233 230 211 200 196 193 191 185 182 182 176 177 180 176 176 179 183 192 212 263 301 313 309 308 309 310 314 317 320 323 322 321 324 327 328 329 330 331 330 328 325 322 320 317 314 313 312 311 308 306 304 302
150 187 202 211 218 228 244 242 191 137 162 203 213 208 211 212 203 198 211 227 231 203 201 232 246 263 271 264 256 263 254 237 242 239 229 226 213 200 199 196 191 186 184 180 174 178 179 172 178 178 176 189 223 267 288 297 300 302 306 310 317 322 322 323 325 326 330 331 332 332 331 331 330 326 322 318 317 315 313 312 311 309 307 305 303 301
116 222 223 221 226 233 245 249 209 150 204 225 221 215 210 207 198 191 215 226 214 136 243 248 249 258 267 267 263 262 259 244 231 229 223 220 210 200 198 190 184 183 182 181 180 181 180 176 176 169 172 191 222 255 276 289 294 298 304 311 318 322 324 327 330 332 334 334 333 331 330 330 326 322 319 316 314 313 312 311 309 307 306 304 302 300
143 235 233 223 234 241 248 252 236 213 239 246 248 242 214 193 195 199 217 226 212 216 247 256 260 260 264 269 267 262 262 257 241 228 219 215 204 192 187 180 182 186 186 187 186 182 179 175 166 162 175 194 216 248 272 284 291 300 306 310 317 324 330 334 336 337 337 334 332 330 328 327 324 319 317 315 313 312 311 310 309 307 306 304 302 299
163 238 240 225 239 248 247 250 247 247 257 261 262 256 225 190 206 210 221 230 225 232 247 257 265 266 265 267 268 268 268 261 248 225 206 204 195 186 187 186 189 193 191 188 185 181 177 167 159 162 172 186 213 243 265 281 295 303 306 312 322 331 338 342 342 340 336 333 331 329 328 326 322 318 316 315 314 313 312 311 310 309 307 306 304 301
206 234 239 211 241 254 249 246 239 241 250 258 263 261 241 214 225 226 227 234 232 239 248 253 260 266 266 265 268 273 271 255 240 222 208 203 192 187 191 192 194 196 192 187 182 175 168 159 156 161 168 186 215 237 256 282 299 302 305 317 331 340 346 347 343 339 335 332 331 330 328 325 322 319 318 317 316 315 314 314 313 311 309 308 306 304
203 226 248 147 230 256 253 235 222 232 261 263 261 260 248 228 231 235 232 230 227 234 246 252 253 256 262 266 271 272 257 237 234 227 213 205 196 192 194 196 198 196 189 184 179 169 165 164 162 163 175 193 211 226 251 285 299 299 309 328 342 349 350 348 343 338 335 334 332 330 328 324 323 322 321 319 318 317 317 316 315 313 312 310 309 307
183 204 214 167 224 258 260 112 116 82 35 263 255 252 244 230 228 239 243 237 229 227 237 245 243 246 256 266 272 268 248 227 229 224 208 205 202 197 199 199 198 194 186 180 173 166 166 165 160 167 179 191 203 216 244 285 296 303 324 344 353 355 352 347 343 339 336 334 332 330 328 328 326 323 322 321 321 320 320 318 316 315 314 312 311 309
192 206 209 180 215 250 212 103 91 132 233 252 256 233 221 211 212 227 240 241 234 225 227 239 248 255 259 259 259 260 254 236 227 220 208 202 198 200 206 205 196 187 180 172 166 164 161 152 153 165 176 186 195 205 242 279 298 324 349 359 360 358 352 346 344 341 337 334 333 332 331 330 327 324 323 324 323 322 321 320 318 317 316 313 312 311
191 201 202 194 211 235 141 103 175 228 233 262 320 197 201 199 203 219 237 245 241 231 230 240 249 255 257 255 253 257 260 250 227 222 218 205 195 195 200 200 190 178 173 167 162 157 148 147 155 164 173 181 183 178 252 296 319 352 7 8 3 358 353 348 346 343 338 335 334 334 333 330 327 325 325 325 325 324 322 321 320 319 318 316 314 313
185 186 192 190 170 199 171 182 225 247 284 303 288 233 166 156 189 210 251 258 251 232 225 236 243 249 254 256 256 259 268 271 254 240 227 212 202 196 193 191 184 176 173 167 159 151 151 158 164 168 171 171 166 163 262 331 353 10 14 12 6 359 355 352 347 343 339 336 334 333 332 330 328 326 326 326 325 324 322 322 321 321 321 320 318 316
184 173 197 207 192 216 226 223 243 285 304 287 271 226 163 189 186 170 242 267 261 222 206 227 240 245 251 253 253 240 88 56 302 264 231 212 206 200 192 182 172 167 159 145 140 144 151 158 161 163 162 156 151 148 13 3 13 19 18 13 7 1 357 354 347 342 337 334 334 334 333 331 328 326 326 325 324 323 323 322 322 323 323 322 320 320
200 189 204 211 207 219 231 241 252 259 260 262 260 178 166 191 178 152 201 271 271 216 190 215 232 240 247 245 211 117 106 127 272 256 218 186 183 172 149 144 145 141 133 128 131 137 145 152 154 154 152 145 140 113 33 27 23 23 22 15 7 2 359 353 345 340 337 334 335 336 333 331 328 326 325 324 323 322 322 322 323 324 324 322 320 319
215 216 215 216 221 220 220 235 237 233 247 253 235 134 150 151 132 112 119 274 266 205 179 202 220 232 237 210 153 135 131 200 253 251 191 162 166 152 136 131 125 123 129 134 139 143 147 150 149 146 143 138 139 126 53 36 29 30 26 16 8 3 358 349 342 339 337 336 336 335 332 330 329 327 325 324 323 323 323 323 324 324 324 322 320 318
210 221 214 213 226 223 220 233 236 238 255 251 161 142 168 144 116 99 272 264 247 170 173 197 214 225 211 160 152 163 177 207 241 241 154 148 147 140 141 140 131 125 129 135 142 146 147 148 147 144 143 146 149 122 58 39 35 37 29 17 11 5 355 344 340 340 337 336 336 334 333 333 332 330 328 325 324 324 325 325 324 325 326 324 321 321
206 214 207 213 225 224 223 233 244 253 254 218 142 154 163 120 92 156 243 247 204 156 183 191 201 209 174 152 168 191 200 207 181 121 133 138 132 130 135 130 127 129 133 138 143 145 144 146 147 145 148 152 136 90 55 42 41 42 31 20 13 1 349 343 341 340 337 336 337 336 337 337 335 333 331 329 327 326 326 327 327 327 327 325 324 324
192 197 206 217 225 227 230 236 253 268 247 167 145 165 161 136 211 230 232 223 143 168 191 187 192 191 167 172 191 195 184 141 118 131 142 142 139 138 133 123 119 123 132 139 144 145 143 143 145 146 147 140 112 79 53 44 47 43 32 22 11 355 347 344 341 339 338 338 340 341 341 339 338 337 334 333 332 330 329 331 332 331 329 327 327 325
178 171 199 212 209 216 236 228 235 262 223 141 136 165 187 198 227 231 211 104 166 178 179 186 196 184 170 186 196 175 142 130 137 146 146 145 146 139 135 137 132 132 140 145 150 154 149 145 152 153 142 122 100 79 56 47 47 44 34 21 5 353 350 347 342 341 342 342 343 344 343 341 340 339 338 336 336 334 332 333 335 335 333 331 330 328
171 181 206 211 193 172 198 209 218 240 186 143 151 188 206 211 224 219 190 206 203 173 176 188 196 188 181 185 181 164 155 149 150 154 149 148 149 143 143 145 135 136 146 149 155 161 156 153 155 146 128 113 101 83 60 48 48 47 36 16 1 356 353 349 346 346 346 347 346 346 345 343 341 340 340 341 340 337 336 336 337 337 335 335 334 330
194 199 205 204 195 192 206 219 222 215 156 172 195 210 206 214 224 195 176 202 197 183 190 186 186 190 185 176 168 165 166 161 160 161 156 154 154 151 152 150 143 145 149 149 156 163 162 158 149 133 120 113 103 88 66 51 48 47 34 13 3 360 354 350 349 349 349 348 347 347 346 343 341 341 343 345 344 341 338 337 338 337 336 337 337 331
212 205 191 143 204 222 250 253 242 205 183 206 221 230 216 219 220 185 183 207 195 184 188 182 181 184 177 169 167 169 172 166 162 162 159 156 155 153 149 143 142 146 148 150 158 163 159 149 136 126 123 120 109 96 81 61 51 46 31 13 7 2 355 352 351 349 350 349 348 349 348 343 342 343 344 347 348 346 342 339 338 337 335 337 339 333
230 197 194 213 196 188 244 247 234 223 224 221 222 233 241 237 223 200 204 214 195 181 188 189 181 174 169 170 171 172 172 164 158 160 161 157 155 152 146 143 145 151 156 160 164 163 156 142 130 128 130 130 126 114 99 78 59 50 31 14 9 2 356 358 355 351 351 352 350 350 348 344 342 343 344 347 348 348 346 344 342 339 336 336 337 333
193 174 183 220 216 206 236 246 233 222 236 232 218 223 234 233 224 215 214 211 189 180 188 187 171 164 168 176 175 167 165 163 161 160 161 162 162 154 148 151 149 150 160 165 166 165 155 141 136 137 138 138 140 132 116 101 73 53 33 17 12 4 359 2 360 354 354 353 351 350 348 345 344 344 344 346 347 347 346 344 343 341 338 336 336 335
144 164 176 204 217 226 248 252 241 222 255 246 223 217 226 226 217 211 211 199 181 183 187 181 174 171 171 176 173 161 159 167 169 163 160 163 163 153 148 154 151 151 160 167 168 165 153 143 142 143 141 143 146 140 127 113 88 61 39 24 15 7 3 2 1 360 357 355 353 352 349 347 347 346 344 344 345 346 346 345 342 338 336 338 342 344
152 201 193 183 208 225 238 240 230 217 238 242 225 217 223 224 207 190 192 194 192 190 181 171 174 182 179 176 169 160 162 170 169 164 163 166 166 161 155 153 149 153 162 164 163 158 151 147 147 145 143 145 147 142 133 121 106 79 58 41 23 16 8 1 1 1 358 355 355 353 350 348 348 347 345 343 343 343 344 347 347 342 338 340 343 348
196 211 197 187 215 225 229 234 231 218 227 241 236 221 216 212 194 187 195 200 199 192 180 169 168 174 183 183 172 164 165 166 165 165 165 167 165 160 157 159 158 158 162 163 158 152 149 149 148 147 147 150 149 144 136 128 121 108 90 67 38 27 15 3 1 358 354 355 356 353 351 349 348 347 346 345 345 344 342 344 347 349 349 348 347 349